Location: Newark
(13.8117°N, 3.6025°W)
Time: 21:28:23
(UTC+00:00)

Explorer 11/Cluster Stage 4 - Pass Details

Date: 26 August 2019
Orbit: 467 x 1259 km, 28.8° (Epoch: 22 October)

Event Time Altitude Azimuth Distance (km) Brightness Sun altitude
Rises 10:45:57 0° 289° (WNW) 4,000 10.0 67.7°
Reaches altitude 10° 10:49:13 10° 301° (WNW) 3,123 9.6 68.4°
Maximum altitude 10:55:46 27° 356° (N) 2,185 9.2 70.0°
Drops below altitude 10° 11:02:31 10° 51° (NE) 3,214 10.0 71.6°
Sets 11:05:56 0° 63° (ENE) 4,137 10.5 72.5°
